Alpine, TX

2:25 AM CDT on September 20, 2019 (GMT -0500)
Alpine

Weather History for KE38 - August, 2019

Change the Weather History Date:

Saturday, August 24, 2019

  Actual Average (WUND) Record (WUND)
Temperature  
Mean Temperature 78 °F -  
Max Temperature 92 °F - - (-1)
Min Temperature 65 °F - - (-1)
Cooling Degree Days 13    
Growing Degree Days 28 (Base 50)    
Moisture  
Dew Point 59 °F    
Average Humidity 56    
Maximum Humidity 85    
Minimum Humidity 25    
Precipitation  
Precipitation 0.00 in - - ()
Sea Level Pressure  
Sea Level Pressure 30.14 in    
Wind  
Wind Speed 5 mph ()    
Max Wind Speed 9 mph    
Max Gust Speed 16 mph    
Visibility 10.0 miles    
Events      
Averages and records for this station are not official NWS values.
T = Trace of Precipitation, MM = Missing Value Source: Averaged Metar Reports

Daily Weather History Graph

Daily Weather History Graph

Search for Another Location

Airport or City:

Astronomy

Aug. 24, 2019 Rise Set
Actual Time 7:26 AM CDT 8:26 PM CDT
Civil Twilight 7:01 AM CDT 8:51 PM CDT
Nautical Twilight 6:32 AM CDT 9:20 PM CDT
Astronomical Twilight 6:02 AM CDT 9:51 PM CDT
Moon 1:30 AM CDT (8/24) 3:34 PM CDT (8/24)
Length of Visible Light 13h 49m
Length of Day
13h 00m
Last Quarter, 39% of the Moon is Illuminated
Aug 24
Last Quarter
Aug 30
New
Sep 5
First Quarter
Sep 13
Full
Sep 21
Last Quarter

Hourly Weather History & Observations

Time (CDT) Temp. Heat Index Dew Point Humidity Pressure Visibility Wind Dir Wind Speed Gust Speed Precip Events Conditions
12:15 AM 73.4 °F - 61.9 °F 67% 30.13 in 10.0 mi SW 5.8 mph - N/A   Clear
12:35 AM 72.5 °F - 60.8 °F 67% 30.11 in 10.0 mi WSW 8.1 mph - N/A   Clear
12:55 AM 72.5 °F - 59.4 °F 63% 30.12 in 10.0 mi SW 6.9 mph - N/A   Clear
1:15 AM 72.0 °F - 59.2 °F 64% 30.13 in 10.0 mi South 4.6 mph - N/A   Clear
1:35 AM 69.8 °F - 59.7 °F 70% 30.13 in 10.0 mi SW 3.5 mph - N/A   Clear
1:55 AM 70.3 °F - 61.0 °F 72% 30.13 in 10.0 mi SSE 6.9 mph - N/A   Clear
2:15 AM 69.8 °F - 61.0 °F 73% 30.13 in 10.0 mi South 3.5 mph - N/A   Clear
2:35 AM 71.1 °F - 60.8 °F 70% 30.13 in 10.0 mi SW 5.8 mph - N/A   Clear
2:55 AM 71.4 °F - 61.5 °F 71% 30.13 in 10.0 mi SW 5.8 mph - N/A   Clear
3:15 AM 70.3 °F - 61.7 °F 74% 30.14 in 10.0 mi South 3.5 mph - N/A   Clear
3:35 AM 71.1 °F - 61.5 °F 72% 30.14 in 10.0 mi Calm Calm - N/A   Clear
3:55 AM 71.1 °F - 61.5 °F 72% 30.15 in 10.0 mi South 3.5 mph - N/A   Clear
4:15 AM 71.1 °F - 61.7 °F 72% 30.14 in 10.0 mi South 3.5 mph - N/A   Clear
4:35 AM 71.1 °F - 60.8 °F 70% 30.14 in 10.0 mi Calm Calm - N/A   Clear
4:55 AM 69.8 °F - 61.9 °F 76% 30.14 in 10.0 mi Calm Calm - N/A   Clear
5:15 AM 70.2 °F - 61.0 °F 73% 30.15 in 10.0 mi Calm Calm - N/A   Clear
5:35 AM 69.3 °F - 61.2 °F 75% 30.15 in 10.0 mi WNW 3.5 mph - N/A   Clear
5:55 AM 68.0 °F - 60.6 °F 77% 30.15 in 10.0 mi Calm Calm - N/A   Clear
6:15 AM 66.7 °F - 61.3 °F 83% 30.15 in 10.0 mi SSE 4.6 mph - N/A   Clear
6:35 AM 66.4 °F - 61.7 °F 85% 30.16 in 10.0 mi South 4.6 mph - N/A   Clear
6:55 AM 66.6 °F - 61.2 °F 83% 30.16 in 10.0 mi SW 4.6 mph - N/A   Clear
7:15 AM 65.5 °F - 60.8 °F 85% 30.16 in 10.0 mi WSW 6.9 mph - N/A   Clear
7:35 AM 65.8 °F - 60.8 °F 84% 30.16 in 10.0 mi SW 5.8 mph - N/A   Clear
7:55 AM 67.3 °F - 61.3 °F 81% 30.15 in 10.0 mi SW 9.2 mph - N/A   Clear
8:15 AM 70.0 °F - 61.3 °F 74% 30.16 in 10.0 mi SW 6.9 mph - N/A   Clear
8:35 AM 70.9 °F - 61.5 °F 72% 30.17 in 10.0 mi WSW 3.5 mph - N/A   Clear
8:55 AM 73.4 °F - 60.8 °F 65% 30.17 in 10.0 mi West 6.9 mph - N/A   Clear
9:15 AM 74.8 °F - 61.2 °F 62% 30.17 in 10.0 mi West 5.8 mph - N/A   Clear
9:35 AM 75.9 °F - 61.0 °F 60% 30.17 in 10.0 mi WSW 6.9 mph - N/A   Clear
9:55 AM 76.3 °F - 61.2 °F 59% 30.17 in 10.0 mi WSW 6.9 mph - N/A   Clear
10:15 AM 76.5 °F - 61.7 °F 60% 30.17 in 10.0 mi SW 6.9 mph - N/A   Clear
10:35 AM 77.4 °F - 61.5 °F 58% 30.18 in 10.0 mi WSW 8.1 mph - N/A   Clear
10:55 AM 77.9 °F - 61.5 °F 57% 30.19 in 10.0 mi SW 6.9 mph - N/A   Clear
11:15 AM 78.4 °F - 61.0 °F 55% 30.19 in 10.0 mi WSW 5.8 mph - N/A   Clear
11:55 AM 79.9 °F - 59.9 °F 50% 30.19 in 10.0 mi Calm Calm - N/A   Clear
12:15 PM 81.3 °F 81.9 °F 60.3 °F 49% 30.18 in 10.0 mi North 3.5 mph - N/A   Clear
12:35 PM 82.9 °F 83.0 °F 59.5 °F 45% 30.17 in 10.0 mi Calm Calm - N/A   Clear
12:55 PM 84.2 °F 83.8 °F 59.0 °F 42% 30.17 in 10.0 mi SSW 3.5 mph - N/A   Clear
1:15 PM 84.6 °F 83.9 °F 57.7 °F 40% 30.16 in 10.0 mi Calm Calm - N/A   Clear
1:35 PM 85.3 °F 84.1 °F 56.1 °F 37% 30.15 in 10.0 mi Calm Calm - N/A   Clear
1:55 PM 85.5 °F 84.0 °F 55.0 °F 35% 30.15 in 10.0 mi Calm Calm - N/A   Clear
2:15 PM 86.9 °F 85.3 °F 55.0 °F 34% 30.14 in 10.0 mi SSW 4.6 mph - N/A   Scattered Clouds
2:55 PM 88.3 °F 86.1 °F 53.6 °F 30% 30.12 in 10.0 mi Calm Calm - N/A   Scattered Clouds
3:15 PM 90.1 °F 87.9 °F 54.1 °F 29% 30.12 in 10.0 mi SSE 5.8 mph - N/A   Mostly Cloudy
3:35 PM 89.8 °F - 52.0 °F 27% 30.11 in 10.0 mi North 3.5 mph - N/A   Scattered Clouds
3:55 PM 91.6 °F - 51.6 °F 26% 30.10 in 10.0 mi NW 9.2 mph - N/A   Clear
4:15 PM 91.0 °F - 51.1 °F 25% 30.09 in 10.0 mi SSE 5.8 mph - N/A   Scattered Clouds
4:55 PM 90.3 °F - 52.2 °F 27% 30.09 in 10.0 mi NNW 4.6 mph 16.1 mph N/A   Scattered Clouds
5:15 PM 89.8 °F - 50.4 °F 26% 30.09 in 10.0 mi North 4.6 mph - N/A   Scattered Clouds
5:35 PM 89.2 °F - 51.6 °F 27% 30.08 in 10.0 mi ENE 4.6 mph - N/A   Clear
5:55 PM 90.1 °F - 52.7 °F 28% 30.09 in 10.0 mi NE 8.1 mph - N/A   Mostly Cloudy
6:15 PM 86.9 °F 84.9 °F 53.6 °F 32% 30.09 in 10.0 mi ENE 5.8 mph - N/A   Overcast
6:35 PM 86.0 °F 84.7 °F 55.9 °F 36% 30.10 in 10.0 mi SSE 3.5 mph - N/A   Overcast
6:55 PM 84.7 °F 83.9 °F 57.0 °F 39% 30.11 in 10.0 mi SE 5.8 mph - N/A   Overcast
7:15 PM 84.2 °F 83.5 °F 57.4 °F 40% 30.11 in 10.0 mi SSW 5.8 mph - N/A   Mostly Cloudy
7:35 PM 81.5 °F 81.7 °F 59.0 °F 46% 30.11 in 10.0 mi SW 6.9 mph - N/A   Scattered Clouds
7:55 PM 81.0 °F 81.5 °F 59.5 °F 48% 30.11 in 10.0 mi South 6.9 mph - N/A   Clear
8:15 PM 80.6 °F 81.1 °F 59.4 °F 48% 30.12 in 10.0 mi South 6.9 mph - N/A   Scattered Clouds
8:35 PM 80.6 °F 81.1 °F 59.0 °F 48% 30.13 in 10.0 mi South 4.6 mph - N/A   Scattered Clouds
8:55 PM 80.2 °F 80.7 °F 58.1 °F 47% 30.13 in 10.0 mi South 8.1 mph - N/A   Clear
9:15 PM 80.1 °F 80.6 °F 57.9 °F 47% 30.13 in 10.0 mi South 5.8 mph - N/A   Clear
9:35 PM 79.7 °F - 57.4 °F 46% 30.13 in 10.0 mi South 6.9 mph - N/A   Clear
9:55 PM 78.4 °F - 57.6 °F 49% 30.15 in 10.0 mi South 5.8 mph - N/A   Clear
10:15 PM 76.8 °F - 59.0 °F 54% 30.16 in 10.0 mi South 5.8 mph - N/A   Clear
10:35 PM 75.6 °F - 58.6 °F 56% 30.17 in 10.0 mi SW 5.8 mph - N/A   Clear
10:55 PM 75.2 °F - 58.6 °F 56% 30.17 in 10.0 mi SSW 5.8 mph - N/A   Clear
11:15 PM 75.2 °F - 57.9 °F 55% 30.17 in 10.0 mi South 4.6 mph - N/A   Clear
11:35 PM 74.5 °F - 57.4 °F 55% 30.17 in 10.0 mi SSW 5.8 mph - N/A   Clear
11:55 PM 74.8 °F - 57.0 °F 54% 30.17 in 10.0 mi SW 6.9 mph - N/A   Clear